カタログに戻る

IRIDE-MS1-EAG2-16

運用中科学SSO
NORAD 68452·PAYLOAD·🇮🇹 Italy

打ち上げ Mar 30, 2026 から Vandenberg Space Force Base

Loading…

次のパス (今後24時間)

TLE

最新Source: Space-Track

元期: Sep 14, 2026, 20:12 UTC

1 68452U 26067AN  26257.84206817  .00006927  00000-0  33330-3 0  9993
2 68452  97.4645 215.0603 0006031 101.3723 258.8189 15.19082066 25541

AllMySatでIRIDE-MS1-EAG2-16をリアルタイム追跡

Download on the App Store